Time,TemperatureF,DewpointF,PressureIn,WindDirection,WindDirectionDegrees,WindSpeedMPH,WindSpeedGustMPH,Humidity,HourlyPrecipIn,Conditions,Clouds,dailyrainin,SoftwareType,DateUTC
2013-03-20 00:02:00,34.0,34.0,-100.00,SSW,205,5.0,8.0,99,-99.99,,,-99.99,,2013-03-20 05:02:00,
2013-03-20 00:12:00,34.0,34.0,-100.00,SSW,205,5.0,8.0,99,-99.99,,,-99.99,,2013-03-20 05:12:00,
2013-03-20 00:32:00,34.0,34.0,-100.00,SW,225,6.0,6.0,99,-99.99,,,-99.99,,2013-03-20 05:32:00,
2013-03-20 00:42:00,34.0,34.0,-100.00,WSW,240,7.0,8.0,99,-99.99,,,-99.99,,2013-03-20 05:42:00,
2013-03-20 01:02:00,35.0,34.0,-100.00,West,260,5.0,8.0,99,-99.99,,,-99.99,,2013-03-20 06:02:00,
2013-03-20 01:12:00,35.0,34.0,-100.00,West,265,4.0,6.0,99,-99.99,,,-99.99,,2013-03-20 06:12:00,
2013-03-20 01:32:00,35.0,34.0,-100.00,WNW,300,6.0,9.0,99,-99.99,,,-99.99,,2013-03-20 06:32:00,
2013-03-20 01:43:00,34.0,34.0,-100.00,NNW,340,8.0,10.0,99,-99.99,,,-99.99,,2013-03-20 06:43:00,
2013-03-20 01:53:00,34.0,34.0,-100.00,NNW,340,8.0,10.0,99,-99.99,,,-99.99,,2013-03-20 06:53:00,
2013-03-20 02:02:00,34.0,34.0,-100.00,NNW,340,8.0,10.0,99,-99.99,,,-99.99,,2013-03-20 07:02:00,
2013-03-20 02:12:00,34.0,34.0,-100.00,NNW,340,9.0,11.0,99,-99.99,,,-99.99,,2013-03-20 07:12:00,
2013-03-20 02:32:00,35.0,34.0,-100.00,North,355,10.0,15.0,99,-99.99,,,-99.99,,2013-03-20 07:32:00,
2013-03-20 02:42:00,35.0,34.0,-100.00,North,0,9.0,15.0,98,-99.99,,,-99.99,,2013-03-20 07:42:00,
2013-03-20 03:02:00,33.0,31.0,-100.00,North,10,10.0,16.0,91,-99.99,,,-99.99,,2013-03-20 08:02:00,
2013-03-20 03:12:00,33.0,31.0,-100.00,North,10,10.0,16.0,91,-99.99,,,-99.99,,2013-03-20 08:12:00,
2013-03-20 03:42:00,32.0,27.0,-100.00,NNE,20,15.0,22.0,83,-99.99,,,-99.99,,2013-03-20 08:42:00,
2013-03-20 04:02:00,31.0,25.0,-100.00,NNE,15,11.0,23.0,77,-99.99,,,-99.99,,2013-03-20 09:02:00,
2013-03-20 04:12:00,31.0,24.0,-100.00,NNE,20,14.0,22.0,75,-99.99,,,-99.99,,2013-03-20 09:12:00,
2013-03-20 04:33:00,31.0,23.0,-100.00,NNE,15,14.0,23.0,73,-99.99,,,-99.99,,2013-03-20 09:33:00,
2013-03-20 04:43:00,30.0,22.0,-100.00,North,5,16.0,21.0,73,-99.99,,,-99.99,,2013-03-20 09:43:00,
2013-03-20 05:03:00,29.0,22.0,-100.00,North,0,16.0,21.0,73,-99.99,,,-99.99,,2013-03-20 10:03:00,
2013-03-20 05:12:00,29.0,22.0,-100.00,North,0,16.0,26.0,73,-99.99,,,-99.99,,2013-03-20 10:12:00,
2013-03-20 05:33:00,28.0,21.0,-100.00,North,10,14.0,19.0,72,-99.99,,,-99.99,,2013-03-20 10:33:00,
2013-03-20 05:42:00,28.0,20.0,-100.00,North,5,14.0,19.0,72,-99.99,,,-99.99,,2013-03-20 10:42:00,
2013-03-20 06:12:00,27.0,19.0,-100.00,North,355,14.0,27.0,71,-99.99,,,-99.99,,2013-03-20 11:12:00,
2013-03-20 06:32:00,27.0,19.0,-100.00,NNW,345,20.0,28.0,70,-99.99,,,-99.99,,2013-03-20 11:32:00,
2013-03-20 06:42:00,27.0,17.0,-100.00,NNW,345,21.0,33.0,65,-99.99,,,-99.99,,2013-03-20 11:42:00,
2013-03-20 07:32:00,25.0,9.0,-100.00,NNW,345,25.0,34.0,51,-99.99,,,-99.99,,2013-03-20 12:32:00,
2013-03-20 07:42:00,24.0,9.0,-100.00,NNW,340,24.0,36.0,51,-99.99,,,-99.99,,2013-03-20 12:42:00,
2013-03-20 08:03:00,24.0,9.0,-100.00,North,0,21.0,32.0,52,-99.99,,,-99.99,,2013-03-20 13:03:00,
2013-03-20 08:12:00,24.0,9.0,-100.00,North,350,16.0,31.0,53,-99.99,,,-99.99,,2013-03-20 13:12:00,
2013-03-20 08:32:00,23.0,10.0,-100.00,North,355,14.0,21.0,56,-99.99,,,-99.99,,2013-03-20 13:32:00,
2013-03-20 08:42:00,23.0,10.0,-100.00,NNW,340,18.0,23.0,56,-99.99,,,-99.99,,2013-03-20 13:42:00,
2013-03-20 09:12:00,23.0,11.0,-100.00,NNW,340,16.0,26.0,58,-99.99,,,-99.99,,2013-03-20 14:12:00,
2013-03-20 09:33:00,23.0,10.0,-100.00,North,350,21.0,27.0,58,-99.99,,,-99.99,,2013-03-20 14:33:00,
2013-03-20 09:42:00,23.0,10.0,-100.00,North,350,21.0,27.0,58,-99.99,,,-99.99,,2013-03-20 14:42:00,
2013-03-20 10:12:00,24.0,11.0,-100.00,North,350,19.0,24.0,57,-99.99,,,-99.99,,2013-03-20 15:12:00,
2013-03-20 10:22:00,24.0,11.0,-100.00,North,350,19.0,24.0,57,-99.99,,,-99.99,,2013-03-20 15:22:00,
2013-03-20 10:33:00,24.0,11.0,-100.00,North,350,19.0,24.0,57,-99.99,,,-99.99,,2013-03-20 15:33:00,
2013-03-20 10:43:00,25.0,12.0,-100.00,NNW,345,16.0,28.0,56,-99.99,,,-99.99,,2013-03-20 15:43:00,
2013-03-20 11:33:00,26.0,12.0,-100.00,North,355,15.0,26.0,54,-99.99,,,-99.99,,2013-03-20 16:33:00,
2013-03-20 11:43:00,26.0,11.0,-100.00,NNW,345,19.0,29.0,53,-99.99,,,-99.99,,2013-03-20 16:43:00,
2013-03-20 12:03:00,27.0,12.0,-100.00,North,0,14.0,20.0,52,-99.99,,,-99.99,,2013-03-20 17:03:00,
2013-03-20 12:12:00,27.0,12.0,-100.00,North,0,13.0,23.0,52,-99.99,,,-99.99,,2013-03-20 17:12:00,
2013-03-20 12:32:00,28.0,12.0,-100.00,North,355,11.0,19.0,51,-99.99,,,-99.99,,2013-03-20 17:32:00,
2013-03-20 12:42:00,29.0,13.0,-100.00,NNE,15,7.0,16.0,51,-99.99,,,-99.99,,2013-03-20 17:42:00,
2013-03-20 13:12:00,31.0,14.0,-100.00,North,355,14.0,21.0,49,-99.99,,,-99.99,,2013-03-20 18:12:00,
2013-03-20 13:33:00,31.0,13.0,-100.00,North,355,13.0,17.0,46,-99.99,,,-99.99,,2013-03-20 18:33:00,
2013-03-20 13:42:00,31.0,12.0,-100.00,NNW,345,16.0,22.0,45,-99.99,,,-99.99,,2013-03-20 18:42:00,
2013-03-20 14:32:00,34.0,13.0,-100.00,NNW,335,13.0,19.0,41,-99.99,,,-99.99,,2013-03-20 19:32:00,
2013-03-20 15:02:00,35.0,12.0,-100.00,NNW,340,14.0,19.0,38,-99.99,,,-99.99,,2013-03-20 20:02:00,
2013-03-20 15:13:00,36.0,13.0,-100.00,North,0,11.0,18.0,38,-99.99,,,-99.99,,2013-03-20 20:13:00,
2013-03-20 15:32:00,36.0,12.0,-100.00,NNE,25,8.0,14.0,36,-99.99,,,-99.99,,2013-03-20 20:32:00,
2013-03-20 15:42:00,36.0,12.0,-100.00,NNE,25,8.0,14.0,36,-99.99,,,-99.99,,2013-03-20 20:42:00,
2013-03-20 16:12:00,38.0,12.0,-100.00,NNW,345,16.0,24.0,34,-99.99,,,-99.99,,2013-03-20 21:12:00,
2013-03-20 16:33:00,39.0,11.0,-100.00,NW,325,11.0,19.0,32,-99.99,,,-99.99,,2013-03-20 21:33:00,
2013-03-20 16:42:00,39.0,11.0,-100.00,NW,325,11.0,19.0,32,-99.99,,,-99.99,,2013-03-20 21:42:00,
2013-03-20 17:03:00,39.0,11.0,-100.00,NNW,335,11.0,19.0,31,-99.99,,,-99.99,,2013-03-20 22:03:00,
2013-03-20 17:12:00,39.0,11.0,-100.00,North,355,11.0,21.0,31,-99.99,,,-99.99,,2013-03-20 22:12:00,
2013-03-20 17:33:00,40.0,11.0,-100.00,NNE,15,11.0,19.0,30,-99.99,,,-99.99,,2013-03-20 22:33:00,
2013-03-20 17:42:00,39.0,10.0,-100.00,NNW,345,9.0,20.0,30,-99.99,,,-99.99,,2013-03-20 22:42:00,
2013-03-20 18:02:00,40.0,11.0,-100.00,NNE,20,11.0,17.0,29,-99.99,,,-99.99,,2013-03-20 23:02:00,
2013-03-20 18:32:00,41.0,10.0,-100.00,North,5,6.0,13.0,28,-99.99,,,-99.99,,2013-03-20 23:32:00,
2013-03-20 18:33:00,40.0,9.0,-100.00,North,10,6.0,11.0,27,-99.99,,,-99.99,,2013-03-20 23:33:00,
2013-03-20 18:42:00,40.0,10.0,-100.00,North,0,10.0,14.0,28,-99.99,,,-99.99,,2013-03-20 23:42:00,
2013-03-20 19:02:00,40.0,10.0,-100.00,NNW,345,9.0,13.0,28,-99.99,,,-99.99,,2013-03-21 00:02:00,
2013-03-20 19:12:00,40.0,9.0,-100.00,North,10,6.0,11.0,27,-99.99,,,-99.99,,2013-03-21 00:12:00,
2013-03-20 19:23:00,40.0,9.0,-100.00,North,10,6.0,11.0,27,-99.99,,,-99.99,,2013-03-21 00:23:00,
2013-03-20 19:42:00,40.0,9.0,-100.00,NNE,20,6.0,11.0,27,-99.99,,,-99.99,,2013-03-21 00:42:00,
2013-03-20 20:32:00,36.0,7.0,-100.00,NE,40,6.0,9.0,29,-99.99,,,-99.99,,2013-03-21 01:32:00,
2013-03-20 20:42:00,36.0,7.0,-100.00,NE,55,5.0,7.0,30,-99.99,,,-99.99,,2013-03-21 01:42:00,
2013-03-20 21:02:00,35.0,6.0,-100.00,ENE,65,5.0,7.0,30,-99.99,,,-99.99,,2013-03-21 02:02:00,
2013-03-20 21:12:00,34.0,6.0,-100.00,ENE,75,3.0,6.0,30,-99.99,,,-99.99,,2013-03-21 02:12:00,
2013-03-20 21:32:00,34.0,7.0,-100.00,East,80,4.0,7.0,31,-99.99,,,-99.99,,2013-03-21 02:32:00,
2013-03-20 21:33:00,33.0,6.0,-100.00,NE,55,6.0,7.0,31,-99.99,,,-99.99,,2013-03-21 02:33:00,
2013-03-20 21:43:00,33.0,6.0,-100.00,NE,55,5.0,8.0,32,-99.99,,,-99.99,,2013-03-21 02:43:00,
2013-03-20 22:02:00,34.0,6.0,-100.00,NE,50,5.0,6.0,31,-99.99,,,-99.99,,2013-03-21 03:02:00,
2013-03-20 22:03:00,32.0,6.0,-100.00,ENE,75,6.0,8.0,32,-99.99,,,-99.99,,2013-03-21 03:03:00,
2013-03-20 22:12:00,33.0,6.0,-100.00,NE,55,6.0,7.0,31,-99.99,,,-99.99,,2013-03-21 03:12:00,
2013-03-20 22:13:00,32.0,5.0,-100.00,ENE,70,7.0,9.0,32,-99.99,,,-99.99,,2013-03-21 03:13:00,
2013-03-20 22:22:00,33.0,6.0,-100.00,NE,55,6.0,7.0,31,-99.99,,,-99.99,,2013-03-21 03:22:00,
2013-03-20 22:33:00,31.0,6.0,-100.00,East,85,6.0,9.0,33,-99.99,,,-99.99,,2013-03-21 03:33:00,
2013-03-20 22:43:00,30.0,5.0,-100.00,East,80,5.0,9.0,33,-99.99,,,-99.99,,2013-03-21 03:43:00,
2013-03-20 23:43:00,29.0,6.0,-100.00,ESE,110,8.0,9.0,36,-99.99,,,-99.99,,2013-03-21 04:43:00,